KC2ZHA Weather Reports


Display with metric or nautical units.
time (UTC)temp
F
wind
direction
speed
MPH
gust
MPH
rain 1hr
in
rain 24hr
in
rain mn
in
humidity
%
barometer
mb
20260504184838 80 349 2.0 8.0 0.00 0.00 0.00 41 1013.4
20260504184602 79 349 2.0 8.0 0.00 0.00 0.00 39 1013.6
20260504183826 80 350 1.0 8.0 0.00 0.00 0.00 41 1013.6
20260504183320 79 350 2.0 7.0 0.00 0.00 0.00 40 1013.7
20260504183046 79 350 2.0 7.0 0.00 0.00 0.00 43 1013.7
20260504181802 78 350 2.0 9.0 0.00 0.00 0.00 44 1013.9
20260504181256 78 349 1.0 9.0 0.00 0.00 0.00 40 1013.9
20260504180750 78 349 1.0 5.0 0.00 0.00 0.00 39 1013.9
20260504180244 79 350 1.0 4.0 0.00 0.00 0.00 40 1014.1
20260504175738 79 350 1.0 6.0 0.00 0.00 0.00 41 1014.1
20260504175232 78 350 2.0 6.0 0.00 0.00 0.00 42 1014.1
20260504174726 78 349 2.0 6.0 0.00 0.00 0.00 38 1014.2
20260504174221 78 350 1.0 5.0 0.00 0.00 0.00 40 1014.3
20260504173714 77 350 1.0 5.0 0.00 0.00 0.00 42 1014.4
20260504173208 77 350 1.0 5.0 0.00 0.00 0.00 41 1014.5
20260504172702 76 350 1.0 4.0 0.00 0.00 0.00 42 1014.4
20260504172156 76 350 1.0 4.0 0.00 0.00 0.00 44 1014.5
20260504171651 76 349 1.0 4.0 0.00 0.00 0.00 43 1014.5
20260504171415 76 350 1.0 4.0 0.00 0.00 0.00 45 1014.7
20260504150921 73 349 1.0 5.0 0.00 0.00 0.00 49 1015.7
20260504150414 74 349 1.0 5.0 0.00 0.00 0.00 45 1015.8
20260504141314 69 350 0.0 4.0 0.00 0.00 0.00 49 1016.2
20260504140808 68 350 0.0 3.0 0.00 0.00 0.00 53 1016.1
20260504140306 67 350 1.0 5.0 0.00 0.00 0.00 53 1016.1
20260504130758 62 350 0.0 3.0 0.00 0.00 0.00 62 1016.6
20260504130254 62 350 1.0 3.0 0.00 0.00 0.00 58 1016.6
20260504120250 54 350 0.0 4.0 0.00 0.00 0.00 67 1016.8
20260504110453 44 349 0.0 0.0 0.00 0.00 0.00 78 1016.7
20260504100613 44 349 0.0 0.0 0.00 0.00 0.00 76 1016.3
20260504100107 45 349 0.0 0.0 0.00 0.00 0.00 75 1016.3
20260504081907 50 349 0.0 4.0 0.00 0.00 0.00 65 1016.7
20260504081401 51 349 1.0 5.0 0.00 0.00 0.00 66 1016.8
20260504080855 50 349 1.0 5.0 0.00 0.00 0.00 65 1016.6
20260504080349 50 349 1.0 6.0 0.00 0.00 0.00 65 1016.6
20260504070237 48 349 0.0 1.0 0.00 0.00 0.00 70 1016.8
20260504060215 49 349 0.0 1.0 0.00 0.00 0.00 66 1016.9
20260504050707 47 349 0.0 1.0 0.00 0.00 0.00 66 1016.7
20260504050438 47 349 0.0 1.0 0.00 0.00 0.00 66 1016.7
20260504045707 47 349 0.0 1.0 0.00 0.00 0.00 66 1016.8
20260504045207 48 349 0.0 3.0 0.00 0.00 0.00 67 1016.6
20260504044707 48 349 0.0 3.0 0.00 0.00 0.00 67 1016.4
20260504044435 47 349 0.0 3.0 0.00 0.00 0.00 67 1016.4
20260504043935 47 349 0.0 3.0 0.00 0.00 0.00 67 1016.8
20260504043202 47 349 0.0 1.0 0.00 0.00 0.00 67 1016.7
20260504042703 47 349 0.0 1.0 0.00 0.00 0.00 67 1016.6
20260504041703 47 349 0.0 2.0 0.00 0.00 0.00 67 1016.6
20260504041200 47 349 0.0 2.0 0.00 0.00 0.00 66 1016.6
20260504040932 47 349 0.0 1.0 0.00 0.00 0.00 67 1016.8
20260504040200 47 349 0.0 1.0 0.00 0.00 0.00 66 1016.7
20260504035655 47 349 0.0 1.0 0.00 0.00 0.00 66 1016.8
20260504035422 47 349 0.0 3.0 0.00 0.00 0.00 67 1016.7
20260504034644 47 349 0.0 3.0 0.00 0.00 0.00 67 1016.6
20260504034137 47 349 0.0 1.0 0.00 0.00 0.00 67 1016.4
20260504033631 47 349 0.0 1.0 0.00 0.00 0.00 67 1016.4
20260504033125 47 349 0.0 2.0 0.00 0.00 0.00 68 1016.3
20260504032113 47 349 0.0 1.0 0.00 0.00 0.00 69 1016.3
20260504031607 46 349 0.0 1.0 0.00 0.00 0.00 69 1016.4
20260504031101 46 349 0.0 1.0 0.00 0.00 0.00 69 1016.4
20260504030555 46 349 0.0 1.0 0.00 0.00 0.00 70 1016.6
20260504030049 46 349 0.0 1.0 0.00 0.00 0.00 70 1016.4
20260504025543 46 349 0.0 1.0 0.00 0.00 0.00 70 1016.4
20260504025308 46 349 0.0 1.0 0.00 0.00 0.00 69 1016.4
20260504024804 46 349 0.0 1.0 0.00 0.00 0.00 70 1016.4
20260504024025 47 349 0.0 1.0 0.00 0.00 0.00 70 1016.4
20260504023519 47 349 0.0 1.0 0.00 0.00 0.00 70 1016.4
20260504023244 47 349 0.0 1.0 0.00 0.00 0.00 70 1016.3
20260504022507 47 349 0.0 1.0 0.00 0.00 0.00 70 1016.4
20260504022001 47 349 0.0 1.0 0.00 0.00 0.00 70 1016.3
20260504021455 47 349 0.0 1.0 0.00 0.00 0.00 70 1016.3
20260504020953 47 349 0.0 1.0 0.00 0.00 0.00 70 1016.4
20260504015933 47 349 0.0 1.0 0.00 0.00 0.00 69 1016.2
20260504015427 47 350 0.0 1.0 0.00 0.00 0.00 69 1016.2
20260504014921 47 349 0.0 1.0 0.00 0.00 0.00 69 1016.2
20260504014646 47 349 0.0 1.0 0.00 0.00 0.00 69 1016.1
20260504013909 47 349 0.0 1.0 0.00 0.00 0.00 69 1016.0
20260504013403 47 349 0.0 1.0 0.00 0.00 0.00 68 1015.9
20260504012857 47 349 0.0 1.0 0.00 0.00 0.00 70 1016.0
20260504012351 48 349 0.0 1.0 0.00 0.00 0.00 69 1015.9
20260504011845 48 349 0.0 1.0 0.00 0.00 0.00 68 1016.0
20260504011339 48 349 0.0 0.0 0.00 0.00 0.00 67 1015.8
20260504010833 48 349 0.0 1.0 0.00 0.00 0.00 67 1015.8
20260504010557 49 349 0.0 1.0 0.00 0.00 0.00 67 1015.8
20260504005821 49 349 0.0 1.0 0.00 0.00 0.00 67 1015.8
20260504005315 49 349 0.0 1.0 0.00 0.00 0.00 66 1015.8
20260504004815 49 349 0.0 1.0 0.00 0.00 0.00 65 1015.8
20260504004313 50 349 0.0 1.0 0.00 0.00 0.00 64 1015.9
20260504003811 50 349 0.0 1.0 0.00 0.00 0.00 64 1015.9
20260504003541 50 349 0.0 1.0 0.00 0.00 0.00 63 1015.9
20260504002807 51 349 0.0 1.0 0.00 0.00 0.00 63 1015.9
20260504002305 51 349 0.0 1.0 0.00 0.00 0.00 62 1015.9
20260504002036 52 349 0.0 1.0 0.00 0.00 0.00 61 1015.9
20260504001536 52 349 0.0 1.0 0.00 0.00 0.00 60 1015.8
20260504000803 53 349 0.0 1.0 0.00 0.00 0.00 59 1015.9
20260503235531 54 349 0.0 0.0 0.00 0.00 0.00 57 1015.8
20260503234759 55 349 0.0 0.0 0.00 0.00 0.00 55 1015.7
20260503234259 55 349 0.0 1.0 0.00 0.00 0.00 54 1015.7
20260503233759 56 349 0.0 1.0 0.00 0.00 0.00 52 1015.6
20260503233548 56 349 0.0 1.0 0.00 0.00 0.00 52 1015.6
20260503232753 57 349 0.0 1.0 0.00 0.00 0.00 51 1015.7
20260503232251 57 349 0.0 1.0 0.00 0.00 0.00 52 1015.6
20260503231749 58 349 0.0 1.0 0.00 0.00 0.00 50 1015.5
20260503231248 58 349 0.0 1.0 0.00 0.00 0.00 49 1015.5
20260503230749 59 349 0.0 2.0 0.00 0.00 0.00 48 1015.6
20260503230249 59 349 0.0 2.0 0.00 0.00 0.00 46 1015.5
20260503225749 60 349 0.0 1.0 0.00 0.00 0.00 45 1015.5
20260503225248 60 349 0.0 1.0 0.00 0.00 0.00 44 1015.5
20260503224750 61 349 0.0 1.0 0.00 0.00 0.00 43 1015.6
20260503224249 61 349 0.0 1.0 0.00 0.00 0.00 42 1015.7
20260503223748 62 349 0.0 5.0 0.00 0.00 0.00 40 1015.7
20260503223249 63 349 0.0 5.0 0.00 0.00 0.00 39 1015.7
20260503222749 64 349 0.0 3.0 0.00 0.00 0.00 40 1015.7
20260503222249 65 349 0.0 3.0 0.00 0.00 0.00 36 1015.6
20260503222020 66 349 0.0 2.0 0.00 0.00 0.00 39 1015.7
20260503221248 66 349 0.0 4.0 0.00 0.00 0.00 37 1015.7
20260503220749 67 349 0.0 4.0 0.00 0.00 0.00 36 1015.8
20260503220249 67 349 0.0 1.0 0.00 0.00 0.00 37 1015.9
20260503215749 67 349 0.0 2.0 0.00 0.00 0.00 37 1015.8
20260503215249 67 349 0.0 2.0 0.00 0.00 0.00 34 1015.8
20260503214748 68 349 0.0 2.0 0.00 0.00 0.00 33 1015.9
20260503214247 69 349 0.0 4.0 0.00 0.00 0.00 37 1015.8
20260503213743 68 349 0.0 4.0 0.00 0.00 0.00 37 1016.0
20260503213242 68 349 1.0 4.0 0.00 0.00 0.00 35 1015.9
20260503212741 68 349 0.0 3.0 0.00 0.00 0.00 39 1015.9
20260503212241 68 349 0.0 3.0 0.00 0.00 0.00 34 1016.0
20260503212012 69 349 1.0 4.0 0.00 0.00 0.00 37 1016.0
20260503211241 69 349 1.0 4.0 0.00 0.00 0.00 35 1015.8
20260503210741 68 349 0.0 2.0 0.00 0.00 0.00 34 1015.9
20260503210241 68 349 0.0 3.0 0.00 0.00 0.00 36 1015.8
20260503210011 67 349 1.0 4.0 0.00 0.00 0.00 38 1015.9
20260503205241 66 349 1.0 6.0 0.00 0.00 0.00 37 1015.9
20260503204740 66 349 1.0 6.0 0.00 0.00 0.00 38 1015.9
20260503204240 66 349 1.0 4.0 0.00 0.00 0.00 36 1016.0
20260503203733 66 349 1.0 4.0 0.00 0.00 0.00 39 1016.1
20260503203226 66 349 1.0 5.0 0.00 0.00 0.00 37 1016.2
20260503202720 66 349 1.0 5.0 0.00 0.00 0.00 38 1016.1
20260503202214 67 349 1.0 5.0 0.00 0.00 0.00 35 1016.2
20260503201708 68 349 1.0 4.0 0.00 0.00 0.00 35 1016.1
20260503201202 67 349 1.0 4.0 0.00 0.00 0.00 39 1016.1
20260503200656 67 349 1.0 7.0 0.00 0.00 0.00 37 1016.2
20260503200150 66 349 1.0 7.0 0.00 0.00 0.00 36 1016.2
20260503195644 67 349 1.0 6.0 0.00 0.00 0.00 37 1016.4
20260503195138 67 349 1.0 6.0 0.00 0.00 0.00 38 1016.6
20260503194633 66 349 1.0 4.0 0.00 0.00 0.00 42 1016.6
20260503194126 65 349 1.0 6.0 0.00 0.00 0.00 37 1016.6
20260503193855 67 349 1.0 6.0 0.00 0.00 0.00 39 1016.8
20260503193114 66 349 1.0 5.0 0.00 0.00 0.00 41 1016.8
20260503192608 66 349 1.0 5.0 0.00 0.00 0.00 34 1016.8
20260503191556 67 349 1.0 5.0 0.00 0.00 0.00 38 1017.0
20260503191050 66 349 1.0 4.0 0.00 0.00 0.00 42 1017.3
20260503190815 65 349 1.0 4.0 0.00 0.00 0.00 42 1017.3
20260503190037 65 349 1.0 5.0 0.00 0.00 0.00 36 1017.4
20260503185532 66 349 0.0 4.0 0.00 0.00 0.00 37 1017.4
20260503185257 66 349 1.0 3.0 0.00 0.00 0.00 40 1017.4